Probability
0 0 0 0 0 0 0 0 0 0 0 0 0 0 0 0 0 0 0 0 0 0 0 0 0 0 0 0 0 0 0 0 0 0 0 0 0 0 0 0 0 0 0
0 0 0 0 0 0 0 0 0 0 0 0 0 0 0 0 0 0 0 0 0 0 0 0 0 0 0 0 0 0 0 0 0 0 0 0 0 0 0 0 0 0 0
0 0 0 0 0 0 0 0 0 0 0 0 0 0 0 0 0 0 0 0 0 0 0 0 0 0 0 0 0 0 0 0 0 0 0 0 0 0 0 0 0 0 0
0 0 0 0 0 0 0 0 0 0 0 0 0 0 0 0 0 0 0 0 0 0 0 0 0 0 0 0 0 0 0 0 0 0 0 0 0 0 0 0 0 0 0
0 0 0 2 5 5 2 0 0 0 0 0 0 0 0 0 0 0 0 0 0 0 0 0 0 0 0 0 0 0 0 0 0 0 0 0 0 0 0 0 0 0 0
0 0 0 3 9 10 6 2 1 0 0 0 0 0 0 0 0 0 0 0 0 0 0 0 0 0 0 0 0 0 0 0 0 0 0 0 0 0 0 0 0 0 0
0 0 0 2 5 7 6 4 2 0 0 0 0 0 0 0 0 0 0 0 0 0 0 0 0 0 0 0 0 0 0 0 0 0 0 0 0 0 0 0 0 0 0
0 0 0 0 0 1 2 2 1 0 0 1 2 1 0 0 0 0 0 0 0 0 0 0 0 0 0 0 0 0 0 0 0 0 0 0 0 0 0 0 0 0 0
0 0 0 0 0 0 0 0 0 0 0 2 3 2 0 0 0 0 0 0 0 0 0 0 0 0 0 0 0 0 0 0 0 0 0 0 0 0 0 0 0 0 0
0 0 0 0 0 0 0 0 0 0 0 1 2 1 0 0 0 0 0 0 0 0 0 0 0 0 0 0 0 0 0 0 0 0 0 0 0 0 0 0 0 0 0
0 0 0 0 0 0 0 0 0 0 0 0 0 0 0 0 0 0 0 0 0 0 0 0 0 0 0 0 0 0 0 0 0 0 0 0 0 0 0 0 0 0 0
0 0 0 0 0 0 0 0 0 0 0 0 0 0 0 0 0 0 0 0 0 0 0 0 0 0 0 0 0 0 0 0 0 0 0 0 0 0 0 0 0 0 0
0 0 0 0 0 0 0 0 0 1 0 0 0 0 0 0 0 0 0 0 0 0 0 0 0 0 0 0 0 0 0 0 0 0 0 0 0 0 0 0 0 0 0
0 0 0 0 0 0 0 0 0 0 0 0 0 0 0 0 0 0 0 0 0 0 0 0 0 0 0 0 0 0 0 0 0 0 0 0 0 0 0 0 0 0 0
0 0 0 0 0 0 0 0 0 0 0 0 0 0 0 0 0 0 0 0 0 0 0 0 0 0 0 0 0 0 0 0 0 0 0 0 0 0 0 0 0 0 0
0 0 0 0 0 0 0 0 0 0 0 0 0 0 0 0 0 0 0 0 0 0 0 0 0 0 0 0 0 0 0 0 0 0 0 0 0 0 0 0 0 0 0
0 0 0 0 0 0 0 0 0 0 0 0 0 0 0 0 0 0 0 0 0 0 0 0 0 0 0 0 0 0 0 0 0 0 0 0 0 0 0 0 0 0 0
0 0 0 0 0 0 0 0 0 0 0 0 0 0 0 0 0 0 0 0 0 0 0 0 0 0 0 0 0 0 0 0 0 0 0 0 0 0 0 0 0 0 0
0 0 0 0 0 0 0 0 0 0 0 0 0 0 0 0 0 0 0 0 0 0 0 0 0 0 0 0 0 0 0 0 0 0 0 0 0 0 0 0 0 0 0
0 0 0 0 0 0 0 0 0 0 0 0 0 0 0 0 0 0 0 0 0 0 0 0 0 0 0 0 0 0 0 0 0 0 0 0 0 0 0 0 0 0 0
0 0 0 0 0 0 0 0 0 0 0 0 0 0 0 0 0 0 0 0 0 0 0 0 0 0 0 0 0 0 0 0 0 0 0 0 0 0 0 0 0 0 0
0 0 0 0 0 0 0 0 0 0 0 0 0 0 0 0 0 0 0 0 0 0 0 0 0 0 0 0 0 0 0 0 0 0 0 0 0 0 0 0 0 0 0
0 0 0 0 0 0 0 0 0 0 0 0 0 0 0 0 0 0 0 0 0 0 0 0 0 0 0 0 0 0 0 0 0 0 0 0 0 0 0 0 0 0 0
0 0 0 0 0 0 0 0 0 0 0 0 0 0 0 0 0 0 0 0 0 0 0 0 0 0 0 0 0 0 0 0 0 0 0 0 0 0 0 0 0 0 0
0 0 0 0 0 0 0 0 0 0 0 0 0 0 0 0 0 0 0 0 0 0 0 0 0 0 0 0 0 0 0 0 0 0 0 0 0 0 0 0 0 0 0
0 0 0 0 0 0 0 0 0 0 0 0 0 0 0 0 0 0 0 0 0 0 0 0 0 0 0 0 0 0 0 0 0 0 0 0 0 0 0 0 0 0 0
Wind_Speed
6 13 18 16 15 14 13 12 12 11 12 12 11 10 9 9 8 6 6 6 9 11 13 13 13 13 13 12 11 11 10 9 8 8 9 10 10 10 11 9 9 8 12
8 14 18 16 16 15 14 13 12 12 12 12 11 10 9 8 8 7 6 6 10 13 13 12 11 11 11 11 10 10 9 9 8 7 5 7 9 9 11 12 11 7 12
8 14 15 15 16 15 14 14 13 13 12 12 11 10 10 10 9 8 7 9 12 13 11 10 9 10 9 9 9 9 8 8 7 8 7 1 6 8 9 10 10 11 11
7 13 14 14 15 15 14 14 14 14 13 13 12 11 11 11 10 10 10 11 12 11 10 9 9 10 9 9 8 8 7 6 7 8 5 2 5 6 8 9 10 10 10
5 10 13 16 16 16 15 15 14 14 13 13 13 13 13 12 11 10 10 11 11 10 9 8 9 9 9 8 7 7 6 6 8 6 4 4 6 8 7 9 9 9 9
6 7 13 16 15 17 16 16 16 15 14 13 13 14 15 13 12 10 9 9 10 9 8 8 9 9 8 8 8 7 6 7 7 3 4 6 5 11 12 10 9 8 8
6 5 12 15 13 13 15 16 16 15 14 13 14 16 15 14 12 10 9 9 9 8 8 8 9 8 8 8 7 7 6 9 3 3 4 6 5 9 10 10 9 9 10
6 6 9 13 13 12 12 13 14 13 13 13 15 16 15 14 13 11 10 9 9 8 8 9 8 8 8 7 6 5 5 7 4 4 6 6 7 6 7 6 6 7 7
5 6 6 9 11 11 12 12 12 12 12 12 15 15 14 14 13 12 10 10 10 9 9 9 8 8 8 7 5 3 4 7 4 4 7 5 7 5 5 5 4 4 5
4 5 5 8 10 9 9 12 12 13 12 12 14 13 13 12 12 11 9 9 10 10 10 9 9 8 7 6 4 2 4 6 4 5 5 5 8 5 5 4 3 3 3
4 5 6 6 8 10 9 11 11 11 12 12 11 11 11 6 7 7 8 9 10 10 10 10 9 9 7 5 3 1 4 1 4 4 4 6 6 5 4 3 2 1 2
9 8 7 8 7 8 8 8 7 7 8 8 7 8 6 5 5 7 9 10 9 10 10 11 10 9 6 3 3 4 1 1 2 3 4 6 6 4 2 2 1 2 3
9 10 9 9 8 7 5 5 5 5 6 8 8 10 7 5 4 4 4 5 6 8 5 7 6 3 3 2 2 2 2 2 2 3 4 5 5 4 1 2 3 3 3
6 8 11 11 9 8 6 5 5 4 5 6 8 9 7 5 5 5 4 5 4 4 5 5 3 3 3 2 2 3 2 2 2 2 3 5 5 4 2 3 3 4 4
6 5 7 11 11 9 7 5 5 5 5 5 6 7 7 5 5 5 5 5 6 5 5 5 4 4 3 3 2 3 3 3 3 3 3 5 7 6 1 2 3 4 5
5 6 5 8 10 9 7 6 5 5 5 5 5 7 8 6 5 5 5 5 6 6 5 5 5 5 4 3 3 3 3 3 3 3 3 4 9 10 7 3 0 3 5
9 4 3 5 7 9 8 6 4 4 4 4 4 7 8 7 7 6 5 5 5 6 6 5 5 4 4 4 4 3 2 3 3 2 2 2 3 9 11 10 6 1 5
15 13 8 2 3 6 6 5 4 4 4 4 4 4 7 7 7 6 5 5 5 5 5 5 5 4 4 4 4 3 3 3 3 2 2 2 2 3 7 10 10 8 6
14 13 13 9 2 1 3 3 3 3 3 3 3 4 5 6 6 5 5 5 6 5 5 5 5 5 4 4 4 3 3 3 2 2 3 3 3 3 3 5 8 8 6
12 13 14 13 10 5 2 2 1 0 1 1 2 3 5 6 6 5 4 6 6 6 5 6 7 5 5 5 5 3 3 3 2 2 3 3 2 2 2 2 2 4 5
15 16 16 15 13 8 4 3 2 2 1 1 1 2 4 5 6 5 4 5 5 6 7 8 6 7 5 5 5 2 1 1 2 3 2 3 2 2 2 2 1 1 2
15 15 15 15 14 11 7 4 4 4 3 3 2 2 1 2 4 4 5 5 6 5 6 7 7 6 4 6 6 4 2 2 3 4 3 4 4 3 3 3 3 2 2
15 15 14 15 14 13 10 6 5 5 4 4 5 3 2 1 2 4 5 4 6 6 7 8 9 11 7 6 5 7 7 7 3 3 5 4 5 4 3 3 4 4 4
12 11 12 13 13 13 12 10 7 5 3 3 3 3 2 2 2 3 4 4 4 5 6 7 8 7 8 8 5 4 4 6 6 4 3 4 5 5 5 4 4 5 5
9 9 10 11 12 13 12 12 10 8 5 4 5 5 4 2 3 3 3 4 4 5 6 6 7 8 5 7 6 4 3 2 4 6 4 4 4 4 5 6 5 4 5
7 8 8 10 11 11 11 11 10 9 8 8 7 6 5 3 2 3 4 4 5 4 6 6 7 9 8 7 6 5 6 6 6 5 5 4 4 4 5 5 6 6 6
Wind_Direction
153 147 156 161 162 161 159 152 147 145 142 141 141 140 134 125 121 120 117 114 116 111 103 96 89 82 76 69 61 57 56 56 53 47 63 85 81 72 60 60 78 64 63
142 145 158 161 164 165 163 157 153 152 152 153 154 154 150 141 137 141 148 140 122 108 99 94 91 86 79 73 64 54 45 38 26 9 21 80 83 76 69 64 68 71 65
135 142 160 161 164 165 163 160 159 162 163 164 163 160 153 142 132 130 137 134 119 109 105 103 101 93 82 73 64 52 40 28 8 347 325 185 99 93 88 79 78 76 73
137 145 166 161 165 165 164 164 166 170 171 171 166 160 151 138 123 113 111 113 111 109 111 113 110 101 89 75 63 50 33 13 352 335 336 64 90 98 114 101 90 84 81
146 150 166 162 168 168 168 169 172 175 177 177 174 168 155 142 131 119 112 114 115 116 119 120 114 104 93 81 67 54 31 360 333 325 355 34 75 76 98 110 100 92 89
155 156 159 166 175 174 174 176 178 182 184 184 182 172 158 150 142 131 126 128 127 126 125 119 109 98 88 77 66 53 30 355 329 9 17 45 68 73 72 90 101 98 99
160 159 153 170 179 184 183 183 184 187 188 190 183 169 162 155 149 141 140 144 140 136 132 124 114 105 93 81 69 51 19 345 13 43 51 49 46 76 73 72 82 86 90
157 155 149 175 179 188 193 195 193 192 193 191 178 170 167 161 155 151 154 158 155 151 146 136 127 117 107 97 82 58 17 352 7 41 71 45 25 71 70 65 70 80 90
152 153 161 172 188 191 195 198 198 196 197 192 180 174 169 165 160 155 160 166 167 164 156 145 137 127 119 108 92 59 6 355 39 32 70 43 15 66 77 69 67 75 86
161 165 199 177 186 193 197 202 201 198 197 193 182 173 166 162 157 154 159 168 174 169 159 152 145 138 128 116 100 38 341 339 36 48 61 32 24 52 72 67 63 74 92
213 191 208 209 190 189 191 197 198 198 194 185 176 167 157 156 153 153 164 170 178 167 161 157 154 143 133 130 141 233 309 2 56 63 55 30 25 34 59 67 64 86 115
213 205 206 219 209 195 191 182 184 187 183 180 171 164 171 172 165 163 175 170 173 159 160 162 154 143 150 159 191 223 255 46 74 87 65 31 15 7 50 90 125 128 120
209 196 198 210 213 206 196 181 179 184 181 186 182 171 177 177 154 151 141 154 155 149 146 145 139 180 206 155 168 123 58 53 65 80 73 37 11 348 270 185 171 147 147
235 201 188 194 203 207 202 192 180 182 187 189 191 176 174 172 156 155 147 155 153 153 147 139 163 192 157 117 98 99 69 56 58 77 75 36 16 349 260 173 162 167 169
239 237 194 186 195 199 205 196 186 186 187 187 185 184 176 170 164 164 163 165 165 161 155 150 166 165 154 152 143 119 87 67 55 62 89 42 25 9 354 167 176 169 157
248 234 219 190 191 194 199 203 196 189 184 183 182 188 183 168 162 166 172 169 166 160 151 150 164 159 160 146 137 110 99 94 68 37 104 72 41 31 30 48 163 179 169
353 330 246 214 188 188 196 201 198 193 182 188 187 187 181 169 164 166 174 173 165 150 146 149 156 151 151 145 143 125 101 80 92 59 61 97 71 45 37 34 24 145 163
5 358 347 320 197 188 187 191 190 190 186 183 182 176 174 170 165 164 170 174 161 145 145 154 155 152 154 153 150 143 122 94 88 92 71 59 71 70 50 46 41 51 76
9 3 358 354 351 207 178 174 180 178 186 175 168 159 166 174 174 166 171 170 158 149 154 163 159 153 157 159 145 134 131 132 129 125 107 81 61 73 85 59 44 37 45
16 15 12 9 11 22 47 66 50 34 155 147 147 154 161 173 179 169 168 172 160 157 166 170 168 167 153 148 125 117 130 137 158 160 145 112 92 86 110 107 46 22 27
23 23 21 18 13 18 34 43 39 4 3 33 95 133 163 168 175 173 166 171 167 176 184 174 164 160 148 137 107 95 60 147 190 181 170 153 165 150 125 135 129 83 29
27 24 24 20 17 19 25 33 38 21 19 19 33 58 94 154 171 177 178 176 174 179 191 188 170 157 153 164 141 130 155 260 248 196 183 176 176 168 172 179 162 164 115
28 26 26 22 18 16 20 30 36 29 19 12 4 7 13 359 196 190 201 194 188 188 198 198 189 173 168 192 189 156 160 193 196 210 199 185 179 176 183 179 178 189 150
25 23 29 28 24 19 20 24 28 31 18 352 343 350 351 320 300 227 220 226 209 207 213 209 204 201 168 180 219 221 173 150 151 173 219 206 191 187 184 181 188 197 164
27 27 28 31 31 26 26 24 24 21 11 0 4 3 351 318 285 297 262 243 240 221 227 225 212 215 206 188 189 176 182 191 155 144 177 204 212 205 183 178 184 201 173
32 34 32 33 33 29 31 30 27 18 9 9 5 354 345 334 299 269 280 271 259 245 229 235 224 218 226 222 211 190 170 172 185 163 155 170 196 207 188 180 186 196 191